Wind_Speed
4 4 3 3 3 3 3 2 2 1 1 1 1 1 1 1 2 2 1 1 1 1 1 1 1 1 1 2 3 3 3 4 5 5 5 6 6 6 6 5 5 4 5
5 4 4 3 4 4 2 2 2 2 1 1 0 0 0 1 1 2 2 1 1 1 0 1 1 2 1 2 3 3 4 4 5 6 6 6 6 6 6 6 6 5 5
5 5 4 4 4 3 2 2 3 2 1 1 0 0 1 1 2 2 2 2 2 2 2 2 2 2 2 2 3 3 4 5 5 6 7 6 6 6 6 6 6 6 6
5 5 5 4 5 4 4 3 3 2 2 1 1 1 2 2 2 3 3 3 3 3 2 2 3 3 3 3 3 3 4 4 5 6 7 6 6 6 6 7 7 7 7
5 5 4 4 5 5 5 4 3 3 3 2 1 1 2 2 3 3 3 4 3 3 3 2 2 3 3 3 4 3 4 4 5 6 7 7 7 7 7 8 8 8 7
5 5 5 5 5 6 5 4 4 3 3 2 2 2 3 3 3 4 4 4 4 3 3 2 2 3 3 4 4 4 4 5 6 6 7 7 7 7 8 9 9 9 8
6 5 5 5 5 5 5 4 4 4 3 3 3 3 3 3 3 4 4 4 3 3 3 3 3 3 4 4 4 4 5 5 6 7 8 8 8 8 8 9 10 10 9
6 6 5 6 6 6 6 6 5 4 4 3 3 4 4 4 3 3 4 4 3 3 3 4 4 4 5 5 5 6 5 6 7 8 9 9 9 9 9 9 10 10 10
8 7 6 7 7 7 7 6 5 4 4 4 4 4 4 4 3 3 4 4 3 4 4 5 5 6 6 6 6 6 6 7 7 8 9 10 10 9 9 10 10 10 10
9 8 8 8 7 7 7 7 5 4 4 4 4 4 4 4 3 3 4 4 4 4 5 5 6 6 6 6 6 6 7 7 8 8 8 9 10 10 9 10 10 10 10
10 9 9 8 8 8 7 6 6 5 4 3 3 3 3 3 3 4 4 4 5 5 5 5 6 6 6 6 6 7 6 7 7 7 8 9 9 10 10 10 11 11 11
10 9 10 9 9 8 7 7 6 5 4 3 2 3 3 3 3 3 3 4 5 5 5 5 6 6 6 7 7 7 7 7 7 8 8 8 9 10 10 11 11 11 12
11 10 11 10 10 9 8 7 5 5 4 3 3 3 3 3 3 3 3 3 4 5 5 5 6 5 6 6 6 7 7 7 7 8 8 9 9 10 10 10 11 12 12
11 11 11 10 9 9 8 6 5 4 4 4 3 4 3 3 3 3 3 3 5 5 5 5 6 6 6 6 6 6 6 7 7 7 8 9 9 10 10 10 11 11 12
11 12 12 10 10 9 8 7 6 5 4 4 4 4 4 3 3 3 3 4 5 5 5 5 5 6 6 6 6 6 6 6 6 7 8 8 8 9 10 10 11 11 11
10 10 10 9 9 9 8 8 7 6 5 4 4 3 3 4 4 3 4 4 5 5 5 5 5 5 5 5 5 5 5 5 6 7 8 8 9 9 9 9 9 10 10
10 10 10 10 10 10 9 8 8 6 5 4 4 3 3 4 4 4 4 4 5 5 5 5 5 5 5 5 5 5 5 5 6 6 7 7 8 8 8 8 8 9 10
11 10 10 10 10 10 9 9 8 8 6 5 4 4 4 4 4 4 4 4 5 5 4 4 5 5 5 5 5 5 5 5 5 6 6 7 7 7 7 7 8 8 9
11 11 10 10 9 9 10 9 9 8 7 6 5 4 4 5 4 4 4 4 5 5 4 4 5 6 6 5 5 5 5 5 6 6 6 6 7 7 7 7 8 8 9
11 11 11 11 9 9 10 9 9 8 7 6 5 5 5 5 5 4 4 4 5 5 4 5 6 6 6 6 5 5 4 4 5 6 6 6 6 7 7 7 8 8 9
11 11 11 11 10 10 9 9 9 9 8 7 6 6 6 5 5 5 5 5 5 4 4 5 6 6 6 5 5 4 4 4 5 6 6 6 6 7 7 8 8 9 10
12 12 12 12 11 10 9 9 9 9 8 8 7 7 6 6 6 6 5 5 5 4 4 5 6 6 5 5 4 4 4 4 4 5 5 5 6 7 7 7 8 10 11
13 12 12 12 12 11 10 9 9 9 9 8 7 7 6 6 6 6 5 4 4 4 5 5 6 6 5 5 4 4 4 4 4 4 5 5 6 6 7 7 8 9 10
14 13 12 12 12 11 11 10 9 9 9 9 8 7 7 6 6 6 5 5 4 4 5 5 5 5 5 5 4 4 4 4 4 4 4 5 5 6 6 7 7 8 8
14 14 13 13 13 12 11 11 10 9 9 8 7 6 6 6 6 6 5 5 4 4 5 5 5 5 5 4 4 4 4 4 5 5 5 5 6 6 6 7 7 7 7
14 14 14 14 14 13 12 12 11 10 9 8 7 7 6 6 5 5 5 5 5 5 5 5 5 5 5 4 4 5 5 5 5 5 6 6 6 7 7 8 7 7 7
Wind_Direction
171 168 163 161 157 154 148 149 146 129 104 97 87 74 68 60 48 45 36 40 53 69 91 130 155 160 163 182 186 191 202 202 193 191 190 188 187 189 193 191 183 171 157
181 177 178 180 175 168 170 191 182 169 166 163 134 110 335 6 7 2 360 0 357 336 297 241 230 223 213 210 214 217 220 215 205 200 196 191 194 200 204 200 197 194 185
193 188 185 190 181 180 190 205 192 193 195 194 197 288 286 298 322 332 331 325 317 306 292 267 242 237 246 240 230 228 233 231 224 212 206 199 198 206 210 206 206 205 200
195 195 200 204 207 205 204 199 197 204 202 209 254 296 277 288 309 317 312 310 311 302 284 263 257 251 253 252 240 231 235 232 225 218 213 209 210 213 216 215 215 212 210
198 203 209 217 224 213 208 204 216 218 214 230 276 309 296 290 300 305 303 300 302 297 283 269 262 258 257 259 252 245 235 231 221 220 217 218 220 224 226 221 220 219 216
207 207 213 223 217 219 219 220 223 226 228 241 287 315 316 295 289 293 296 297 299 291 281 265 257 259 263 267 267 259 246 240 233 228 226 224 226 229 232 227 226 224 220
210 216 217 221 217 216 216 216 230 233 234 258 290 307 309 301 293 291 294 297 297 285 273 262 263 270 272 272 269 265 256 249 244 237 233 231 233 236 237 232 228 226 224
216 219 218 220 213 212 223 228 234 234 241 255 281 303 304 302 300 293 295 297 291 278 272 267 269 271 272 273 270 266 259 255 255 247 240 237 236 231 233 232 228 226 228
224 222 224 223 215 215 220 224 230 232 246 262 285 299 311 306 304 302 299 298 288 280 275 272 273 274 276 277 273 268 262 259 257 252 242 239 236 234 233 228 226 225 227
229 226 226 221 213 219 216 221 232 236 251 267 287 292 310 311 309 309 301 299 296 289 284 280 282 282 280 278 273 268 262 258 256 253 243 238 237 235 231 229 226 225 227
230 228 223 222 222 224 221 225 230 237 246 262 281 286 302 312 321 318 307 302 295 295 293 288 287 286 285 280 274 268 263 257 253 249 241 238 237 234 231 230 228 227 228
232 232 228 223 220 219 221 220 223 227 238 260 276 289 288 295 311 316 311 305 302 302 301 296 289 287 286 283 276 271 266 261 253 247 242 237 236 233 232 234 233 231 230
235 233 227 220 220 216 213 214 219 222 230 256 283 286 281 286 301 309 310 312 318 311 304 303 296 290 289 281 275 271 265 258 250 246 240 237 236 238 238 238 237 235 233
234 229 224 223 225 223 218 219 226 228 236 250 274 290 283 283 298 308 324 329 328 322 315 308 302 296 293 285 275 272 267 259 250 246 243 239 238 242 242 242 240 238 236
231 228 220 224 225 219 218 223 226 229 237 252 272 281 282 284 302 313 324 324 319 319 323 323 311 304 299 288 281 276 271 263 252 247 243 241 242 243 243 240 241 240 239
231 223 220 225 225 221 218 224 225 227 237 252 260 270 282 289 299 313 322 326 325 326 323 320 314 309 306 295 287 280 272 266 261 256 250 246 248 248 245 243 242 237 236
225 223 219 223 226 226 223 227 227 227 236 250 252 264 278 289 299 306 316 323 325 324 326 325 319 314 306 294 288 281 270 263 263 259 257 252 250 248 246 243 242 238 236
222 219 219 219 222 225 223 226 230 231 239 248 251 264 282 292 298 302 313 320 323 325 328 326 322 321 314 299 289 281 270 264 260 258 258 256 251 250 247 246 245 245 245
219 219 219 222 219 220 221 223 228 230 230 241 251 267 279 289 296 298 304 312 320 320 321 327 325 322 317 304 290 282 271 261 259 256 255 256 253 250 249 251 251 249 246
218 220 219 222 220 217 218 221 225 226 226 235 246 261 274 283 287 292 298 301 307 313 319 326 327 324 319 308 295 282 272 264 257 255 253 253 251 252 254 256 257 256 251
214 215 216 215 214 215 217 223 226 227 230 238 247 259 270 275 278 286 296 299 301 308 318 324 328 326 323 310 294 282 276 267 257 254 253 253 252 255 259 261 262 261 257
214 214 214 213 211 216 222 223 227 228 233 240 248 257 267 270 275 282 287 292 296 304 315 323 327 326 323 312 297 285 273 269 263 262 261 260 259 260 262 263 264 265 262
214 213 213 212 212 216 219 221 226 230 236 239 245 255 265 270 276 283 281 282 291 297 304 315 323 321 319 312 299 288 276 269 272 269 271 268 266 267 270 273 274 271 267
213 211 214 216 214 214 217 222 227 232 236 237 245 255 263 265 271 274 273 273 282 292 297 306 314 316 313 311 302 288 278 269 272 274 270 267 268 271 272 277 284 283 278
214 212 214 218 217 217 222 226 230 234 239 235 243 257 263 264 268 268 269 270 276 288 296 299 305 310 307 304 301 289 280 276 279 279 273 272 276 276 275 279 288 289 285
216 214 217 218 220 224 227 230 233 234 236 236 243 254 259 262 263 266 270 270 277 285 292 297 298 300 298 295 292 286 285 286 284 283 277 278 281 282 282 280 284 282 281
Height
5899 5899 5899 5899 5900 5901 5901 5901 5902 5902 5902 5902 5902 5902 5901 5901 5901 5900 5900 5899 5899 5899 5898 5898 5898 5898 5898 5898 5898 5898 5899 5899 5899 5900 5900 5901 5901 5902 5902 5902 5903 5903 5903
5899 5899 5899 5900 5900 5901 5902 5902 5902 5902 5903 5902 5902 5902 5902 5901 5901 5901 5900 5900 5899 5899 5898 5898 5898 5898 5898 5898 5898 5898 5898 5898 5899 5899 5900 5900 5901 5901 5902 5902 5903 5903 5903
5898 5899 5899 5900 5900 5901 5902 5902 5903 5903 5903 5903 5902 5902 5902 5901 5901 5901 5900 5900 5899 5899 5898 5898 5897 5897 5897 5897 5897 5897 5898 5898 5898 5899 5899 5900 5900 5901 5901 5902 5902 5903 5903
5898 5899 5899 5900 5900 5901 5902 5903 5903 5903 5903 5903 5902 5902 5901 5901 5901 5900 5900 5899 5899 5898 5898 5897 5897 5897 5897 5897 5897 5897 5897 5897 5897 5898 5899 5899 5900 5900 5901 5901 5902 5902 5903
5898 5898 5899 5900 5900 5901 5902 5902 5903 5903 5903 5903 5903 5902 5901 5901 5900 5900 5899 5899 5898 5898 5897 5897 5897 5897 5897 5896 5896 5896 5897 5897 5897 5897 5898 5898 5899 5899 5900 5900 5901 5902 5902
5897 5898 5899 5900 5900 5901 5902 5902 5903 5903 5903 5903 5903 5902 5901 5901 5900 5900 5899 5898 5898 5897 5897 5896 5896 5896 5896 5896 5895 5896 5896 5896 5896 5897 5897 5897 5898 5899 5899 5899 5900 5901 5901
5897 5898 5899 5899 5900 5901 5901 5902 5902 5903 5903 5902 5902 5902 5901 5900 5900 5899 5898 5898 5897 5896 5896 5896 5895 5895 5895 5894 5894 5895 5895 5895 5895 5896 5896 5896 5896 5897 5897 5898 5899 5900 5900
5896 5897 5898 5899 5899 5900 5901 5901 5902 5902 5902 5902 5902 5901 5901 5900 5899 5898 5898 5897 5896 5896 5895 5895 5894 5894 5893 5893 5893 5893 5893 5893 5893 5894 5894 5895 5895 5895 5896 5897 5897 5898 5899
5895 5896 5897 5898 5898 5899 5900 5901 5901 5902 5902 5902 5902 5901 5900 5900 5899 5898 5897 5896 5895 5895 5894 5894 5893 5893 5892 5892 5892 5892 5892 5892 5892 5892 5892 5893 5893 5894 5894 5895 5896 5897 5898
5894 5895 5896 5897 5898 5898 5899 5900 5900 5901 5901 5901 5901 5900 5900 5899 5898 5897 5896 5895 5895 5894 5893 5893 5892 5891 5891 5890 5890 5890 5890 5890 5890 5890 5890 5890 5891 5892 5892 5893 5894 5895 5896
5893 5894 5895 5896 5897 5898 5898 5898 5899 5900 5900 5900 5900 5899 5899 5898 5898 5897 5896 5895 5894 5893 5892 5891 5891 5890 5889 5889 5888 5888 5888 5888 5888 5888 5888 5889 5889 5890 5891 5891 5892 5893 5894
5891 5892 5894 5895 5895 5896 5897 5897 5898 5899 5899 5899 5899 5899 5898 5898 5897 5896 5895 5894 5893 5892 5891 5890 5889 5888 5888 5887 5887 5886 5886 5886 5886 5886 5886 5887 5887 5888 5889 5889 5890 5891 5892
5890 5891 5892 5894 5894 5895 5895 5896 5897 5898 5898 5898 5898 5898 5897 5897 5896 5895 5894 5893 5892 5891 5890 5889 5888 5887 5886 5886 5885 5885 5884 5884 5884 5885 5885 5885 5885 5886 5887 5887 5888 5889 5890
5888 5889 5891 5892 5893 5894 5894 5895 5896 5897 5897 5897 5897 5897 5896 5896 5895 5894 5893 5892 5891 5890 5889 5888 5887 5886 5885 5884 5884 5883 5883 5882 5882 5883 5883 5883 5884 5884 5884 5885 5886 5886 5887
5887 5888 5889 5890 5892 5893 5893 5894 5895 5896 5896 5896 5896 5896 5896 5895 5894 5893 5892 5891 5890 5889 5888 5887 5886 5885 5884 5883 5882 5881 5881 5880 5880 5881 5881 5881 5882 5882 5882 5883 5883 5884 5885
5885 5886 5887 5889 5890 5891 5892 5893 5894 5895 5895 5895 5895 5895 5894 5894 5893 5892 5891 5890 5889 5888 5887 5885 5884 5883 5882 5881 5880 5880 5879 5879 5879 5879 5879 5879 5880 5880 5880 5881 5881 5881 5882
5882 5884 5885 5887 5889 5890 5891 5892 5893 5893 5894 5894 5894 5894 5893 5893 5892 5891 5891 5889 5888 5887 5885 5884 5883 5882 5881 5880 5879 5878 5877 5877 5877 5877 5877 5877 5878 5878 5879 5879 5880 5880 5880
5880 5882 5884 5885 5887 5888 5889 5890 5891 5892 5892 5892 5892 5892 5892 5892 5891 5890 5889 5888 5887 5886 5884 5883 5882 5881 5879 5878 5877 5877 5876 5876 5876 5875 5876 5876 5876 5877 5877 5878 5878 5878 5878
5878 5880 5882 5883 5885 5886 5887 5888 5889 5890 5891 5891 5891 5891 5891 5890 5890 5889 5888 5887 5886 5884 5883 5882 5881 5879 5878 5877 5876 5875 5875 5874 5874 5874 5875 5875 5875 5875 5875 5876 5876 5876 5876
5876 5878 5879 5881 5883 5884 5885 5886 5887 5888 5889 5889 5889 5889 5889 5889 5888 5887 5886 5885 5884 5883 5882 5881 5880 5878 5877 5875 5875 5874 5874 5874 5873 5873 5873 5873 5874 5874 5874 5874 5874 5874 5874
5874 5876 5877 5879 5881 5882 5883 5884 5885 5886 5887 5888 5888 5888 5887 5887 5886 5886 5885 5884 5883 5882 5881 5880 5879 5877 5875 5874 5874 5873 5873 5873 5872 5872 5872 5872 5872 5872 5872 5872 5872 5871 5871
5871 5873 5875 5876 5878 5880 5881 5882 5883 5884 5885 5886 5886 5886 5885 5885 5885 5884 5883 5883 5882 5881 5880 5879 5878 5876 5874 5874 5873 5872 5872 5872 5871 5871 5871 5871 5871 5871 5870 5870 5869 5868 5868
5869 5870 5872 5874 5876 5877 5879 5880 5881 5882 5882 5883 5884 5884 5884 5883 5883 5882 5882 5881 5880 5880 5879 5878 5877 5875 5874 5873 5872 5872 5871 5871 5871 5871 5870 5870 5869 5869 5869 5868 5867 5866 5864
5866 5868 5870 5871 5873 5875 5877 5878 5879 5880 5880 5881 5882 5882 5882 5881 5881 5881 5880 5880 5879 5878 5878 5877 5876 5874 5873 5872 5871 5871 5871 5870 5870 5869 5869 5868 5868 5868 5867 5866 5865 5863 5861
5863 5865 5867 5869 5871 5873 5874 5875 5876 5877 5878 5878 5879 5879 5879 5879 5879 5879 5878 5878 5878 5877 5876 5875 5874 5873 5872 5871 5870 5870 5869 5869 5869 5868 5868 5867 5867 5866 5865 5864 5863 5861 5860
5861 5862 5865 5866 5868 5870 5872 5873 5874 5875 5875 5876 5877 5877 5877 5877 5877 5877 5877 5877 5876 5876 5875 5874 5873 5872 5871 5870 5869 5868 5868 5867 5867 5867 5866 5865 5865 5864 5863 5861 5860 5859 5859